Temperature
20 19 19 19 18 18 18 18 18 18 18 17 17 17 17 17 16 16 15 15 14 14 14 13 14 14 14 14 14 14 14 15 15 15 16 16 17 17 17 17 17 17 17
20 19 19 19 19 18 18 18 18 18 18 17 17 17 17 16 16 16 15 14 14 13 13 13 13 13 13 13 13 13 13 14 14 15 15 16 17 17 17 17 17 17 17
20 20 20 20 19 19 19 19 18 18 18 17 17 17 16 16 16 16 15 15 14 13 13 12 12 12 13 13 13 13 13 13 14 14 15 15 16 16 17 17 17 17 17
21 21 21 20 20 20 19 19 19 18 18 17 17 16 16 16 16 16 15 15 14 13 13 12 12 12 12 12 12 13 13 13 13 14 14 15 15 15 15 16 17 17 16
22 22 21 21 21 21 20 19 19 18 18 17 17 16 16 16 16 15 15 14 14 14 13 13 12 12 12 12 12 12 12 12 12 13 13 14 14 15 15 15 16 16 16
23 22 22 22 22 21 21 20 19 18 18 17 17 16 16 15 15 15 14 14 14 14 14 13 12 12 12 12 12 12 12 12 12 12 13 13 13 14 14 15 15 16 16
24 23 23 22 22 22 21 20 19 19 18 17 16 16 15 15 15 15 14 14 14 14 14 13 13 12 12 11 11 11 11 11 11 12 12 12 12 13 13 14 14 15 15
24 24 23 23 22 22 21 21 20 19 18 17 17 16 16 15 15 15 14 14 14 13 13 13 12 12 11 11 11 11 11 11 11 11 11 12 12 12 13 13 13 14 14
25 24 24 23 23 22 22 21 20 19 18 17 17 16 16 15 15 14 14 13 13 13 13 12 12 11 11 11 11 11 11 11 11 11 11 11 11 12 12 13 13 13 13
26 25 25 24 23 22 21 20 20 19 18 17 17 16 16 15 14 14 13 13 13 13 12 12 12 11 11 11 11 11 11 11 11 11 11 11 11 11 12 12 12 13 13
26 26 25 24 23 22 21 20 19 19 18 17 17 16 16 15 14 14 13 13 12 12 12 12 12 11 11 11 11 11 11 11 11 11 11 11 11 11 11 11 11 12 12
27 26 25 24 23 22 21 20 19 18 18 17 17 16 16 15 14 14 13 13 13 12 12 12 12 11 11 11 11 11 11 11 10 10 10 10 10 10 11 11 11 11 11
27 26 25 24 23 22 21 20 19 19 18 17 17 16 16 15 15 14 14 13 13 12 12 12 12 11 11 11 11 11 11 10 10 10 10 10 10 10 10 10 10 11 11
26 26 25 23 23 22 21 20 20 19 18 18 17 16 16 16 15 14 14 13 13 12 12 12 12 11 11 11 11 10 10 10 10 10 10 10 10 10 10 10 10 10 10
26 25 24 23 22 22 21 20 20 19 18 18 17 17 16 16 15 15 14 14 13 13 12 12 11 11 11 11 11 10 10 10 10 10 10 9 9 9 10 10 10 10 10
26 25 24 23 22 21 21 20 19 19 18 18 17 17 16 16 15 15 14 14 13 13 12 12 12 11 11 11 11 10 10 10 10 10 9 9 9 10 10 10 10 10 10
26 25 24 23 22 21 21 20 20 19 19 18 18 17 16 16 15 15 14 14 13 13 13 12 12 11 11 10 10 10 10 10 10 10 9 9 9 9 10 9 9 9 10
26 26 25 24 23 22 21 20 20 19 19 18 18 17 16 16 15 15 15 14 14 13 13 12 12 11 11 10 10 10 10 10 10 10 9 9 9 9 9 9 9 9 9
26 25 25 24 23 22 22 21 20 19 18 18 17 17 16 16 16 15 15 15 14 14 13 12 11 11 11 10 10 10 9 9 9 9 9 9 9 9 9 9 9 9 9
25 25 25 24 24 23 22 21 20 19 18 18 17 17 17 16 16 15 15 15 14 14 13 12 11 11 11 10 10 10 9 9 9 9 9 9 9 9 9 9 9 8 9
24 24 24 24 23 23 22 21 20 19 19 18 17 17 16 16 16 15 15 15 14 13 13 12 12 11 11 11 10 10 9 9 9 9 9 9 9 9 9 9 8 8 8
23 23 23 22 22 22 21 21 20 19 18 18 17 17 16 16 15 15 15 14 14 13 12 12 12 11 11 11 11 10 10 9 9 9 9 9 9 9 9 8 8 8 8
20 20 20 20 20 20 20 19 19 18 17 17 17 16 16 16 15 15 14 14 13 12 12 12 12 12 11 11 11 10 10 9 9 9 9 8 8 8 8 8 8 8 7
18 18 18 18 19 18 18 18 17 17 16 16 16 16 15 15 15 14 14 13 13 12 12 12 12 11 11 11 10 10 9 9 9 9 8 8 8 8 8 8 8 8 8
17 17 17 17 17 17 17 16 16 15 15 15 15 15 14 14 14 14 13 13 13 13 12 12 12 11 11 11 10 10 9 9 8 8 8 8 8 8 8 8 8 8 7
16 16 16 16 16 16 15 15 15 14 14 14 14 14 14 14 14 13 13 13 13 13 13 12 12 12 11 11 10 10 9 9 9 8 8 8 8 8 8 8 8 8 8
Wind_Speed
10 10 11 12 12 10 9 7 7 7 3 2 1 0 1 1 1 3 6 3 5 6 6 4 5 5 5 6 6 5 7 6 5 5 5 6 8 8 8 8 7 8 12
11 10 10 12 12 11 9 8 7 7 5 3 2 1 1 3 1 1 4 3 4 5 6 6 5 6 6 6 5 5 4 6 6 5 5 5 6 4 5 3 5 5 3
12 12 12 12 12 11 11 10 9 8 6 4 3 2 1 3 1 2 1 4 3 3 4 4 4 5 6 5 6 5 6 5 6 6 4 4 4 5 4 2 1 2 1
13 13 12 12 12 12 12 9 9 7 6 5 3 3 3 3 2 1 1 2 1 2 1 2 4 4 5 6 6 7 6 6 6 6 5 4 3 3 4 5 2 2 3
14 14 14 12 12 12 11 10 10 8 7 5 4 4 4 3 3 3 3 1 3 4 3 2 1 3 5 4 5 6 6 6 6 6 6 6 5 4 5 6 5 3 3
14 14 13 11 9 9 9 10 11 8 7 6 5 4 3 3 4 4 4 4 3 2 3 2 2 2 4 5 5 6 7 6 6 5 6 6 5 5 5 5 6 5 4
13 13 12 11 10 9 8 8 11 9 8 7 6 4 3 3 5 5 5 3 3 2 3 3 1 3 4 4 5 5 6 6 6 5 5 5 6 5 5 5 6 6 6
14 14 13 11 10 10 9 8 9 9 8 6 5 3 2 3 4 2 2 3 3 3 1 1 3 4 5 6 4 5 7 6 5 7 6 5 6 6 5 5 5 6 6
14 13 13 12 10 9 8 8 8 8 6 5 5 5 5 5 4 3 4 5 4 4 2 2 3 5 5 6 6 5 6 6 6 6 7 5 5 5 5 5 5 5 7
12 13 12 12 10 9 8 8 8 7 5 4 5 5 6 6 6 5 6 5 5 5 5 6 6 6 6 6 6 6 7 7 6 6 7 6 5 6 5 5 5 5 6
14 13 11 10 10 10 10 8 8 7 6 5 4 3 3 4 5 5 6 6 6 6 6 6 7 7 7 7 7 7 8 8 7 7 8 7 7 6 5 6 6 6 5
10 11 11 10 9 10 11 10 9 8 8 7 6 6 6 6 6 6 6 5 6 6 6 6 7 7 8 7 7 8 8 7 7 8 8 8 8 7 6 6 7 6 6
8 8 10 10 9 9 9 10 10 9 9 8 7 7 7 6 6 6 6 6 6 6 6 7 7 7 7 7 7 7 7 8 8 7 8 8 8 8 7 7 7 6 8
7 7 8 9 8 8 8 8 8 8 8 7 7 7 6 6 6 6 6 6 6 6 6 7 7 7 7 7 8 8 7 7 7 7 7 8 8 8 8 8 8 8 7
8 8 8 9 9 8 8 8 8 7 7 6 6 6 6 6 5 5 6 6 6 8 6 6 7 7 8 9 7 5 7 6 6 7 7 9 10 11 9 9 7 6 5
8 9 10 11 11 10 9 9 9 8 8 7 7 6 6 5 5 5 6 6 6 6 6 7 8 8 9 3 2 3 6 7 8 8 8 9 11 13 16 16 14 10 9
6 8 10 11 12 11 11 10 10 9 9 9 8 7 6 6 6 6 5 5 5 6 7 7 8 8 8 8 8 9 6 8 9 9 8 11 12 10 7 10 15 15 16
4 6 8 11 12 12 13 11 11 10 10 10 9 8 7 6 5 5 5 5 5 6 6 7 8 8 10 10 11 11 9 9 10 10 10 11 11 12 9 8 8 8 10
3 3 6 9 11 12 12 13 12 12 12 11 10 8 7 6 5 5 5 5 5 6 7 8 8 8 9 10 12 12 8 9 11 11 12 11 11 12 12 8 8 8 8
2 2 4 6 7 9 11 12 12 11 11 10 9 8 7 6 5 5 5 6 6 7 8 8 8 8 8 10 12 13 8 10 10 9 9 13 13 13 11 8 8 9 8
5 2 2 3 3 6 8 9 9 9 8 7 7 7 7 7 7 7 6 6 7 8 8 9 8 9 11 12 14 16 10 10 9 8 7 6 7 11 12 11 8 10 8
11 8 4 2 1 2 5 6 6 5 5 6 7 7 7 8 7 7 7 7 8 8 9 10 11 10 10 12 13 17 18 14 10 9 8 4 2 6 9 9 11 12 9
14 13 11 8 5 2 1 3 3 3 4 5 6 6 7 7 6 7 8 8 8 9 10 9 8 7 6 6 13 15 18 17 12 10 11 9 8 8 9 14 16 13 9
14 13 13 11 9 7 4 2 1 2 3 5 5 6 7 8 8 8 9 9 9 9 8 7 7 6 5 4 4 6 8 11 11 11 12 15 16 14 13 12 11 10 11
13 12 11 10 10 8 6 5 4 2 3 5 6 7 9 10 9 10 10 11 10 9 9 7 6 7 7 2 3 2 4 4 3 4 7 9 9 9 9 10 10 10 10
11 11 11 11 11 9 7 5 4 3 5 6 8 9 9 9 9 10 11 16 17 17 18 17 14 10 11 10 10 9 9 8 5 4 9 11 11 11 10 9 9 9 10
Wind_Direction
142 143 145 145 144 147 149 154 157 151 176 179 193 94 57 353 24 113 107 62 30 9 324 349 346 328 340 352 332 338 324 308 282 279 284 270 256 236 223 222 224 222 220
146 156 165 160 158 160 160 166 165 164 189 168 162 191 261 281 273 77 126 96 47 356 346 28 339 351 343 314 317 325 317 309 309 300 299 300 292 302 252 215 219 231 219
161 169 178 172 171 171 175 181 178 174 186 184 213 243 204 259 277 47 84 81 35 344 360 347 340 345 325 341 347 328 321 311 311 303 299 305 322 339 311 292 181 205 238
171 177 184 184 183 180 182 179 171 176 180 193 235 273 284 296 319 306 88 81 292 267 314 2 351 345 323 324 328 14 338 322 312 313 306 284 301 307 317 321 298 210 204
180 183 188 187 187 185 183 174 169 174 181 198 224 246 283 320 354 9 4 329 261 223 202 137 46 330 305 332 349 327 323 316 315 322 324 319 300 253 260 292 304 287 238
183 181 186 181 184 186 181 170 164 172 181 197 223 231 264 302 316 316 306 292 284 249 147 136 104 303 312 344 328 316 306 308 316 318 313 312 310 308 301 299 305 300 287
183 180 186 186 186 188 186 170 161 169 181 197 213 222 232 263 261 253 265 268 295 322 92 73 58 303 311 297 280 287 287 292 296 299 292 299 306 304 304 306 305 306 304
187 189 190 190 187 190 186 174 159 162 177 193 195 196 219 256 271 268 328 320 309 306 59 218 234 253 265 277 288 294 286 281 288 287 290 290 287 288 291 289 298 303 300
188 190 190 189 187 187 173 159 145 155 174 191 179 184 206 236 278 311 276 263 259 276 308 308 274 258 254 258 267 269 279 286 279 280 287 281 287 286 283 281 273 277 287
192 192 187 184 179 168 147 144 143 157 174 194 205 217 194 211 225 241 266 294 298 286 277 267 270 272 268 260 256 263 267 269 268 263 267 276 277 292 302 299 289 273 270
194 191 182 174 162 153 147 147 149 161 179 200 207 239 238 246 248 242 243 246 253 265 271 268 264 264 263 260 254 254 261 265 266 269 269 265 266 271 285 294 294 290 282
192 182 168 155 156 161 160 160 167 177 184 191 193 202 220 235 247 256 255 253 254 256 263 267 269 269 270 266 262 263 267 268 269 268 269 268 267 259 260 270 278 281 285
185 177 158 154 162 169 169 171 178 185 187 185 187 200 212 226 235 247 257 261 261 262 266 268 269 271 275 276 272 267 266 265 267 269 269 269 268 264 259 261 267 275 279
170 172 153 152 163 168 168 173 181 184 185 182 189 200 210 226 238 246 253 257 260 260 260 263 267 270 274 274 271 267 266 264 265 266 265 266 264 260 256 258 254 260 267
178 176 166 161 167 172 172 179 186 183 184 182 196 204 207 217 230 243 251 256 262 268 265 268 270 270 271 269 274 269 271 281 281 275 271 269 266 261 255 257 254 262 267
195 188 179 175 178 183 185 188 191 186 178 191 205 207 208 220 231 239 246 251 254 261 265 268 271 271 274 251 200 261 290 291 284 280 276 276 270 258 243 239 243 246 254
208 196 186 183 184 188 189 192 191 188 187 194 205 206 207 220 229 246 256 263 269 270 267 266 267 267 268 253 225 228 254 269 270 270 270 273 274 286 271 241 235 241 244
237 203 191 186 186 189 191 192 193 192 195 198 203 206 208 218 222 233 250 258 262 264 266 267 269 269 268 254 232 226 239 260 262 261 259 259 264 271 275 277 261 245 242
258 205 206 208 193 193 191 189 197 196 200 203 203 204 205 211 220 238 248 255 259 262 263 265 261 261 263 246 229 220 246 256 259 258 257 254 253 253 249 250 256 260 259
318 229 224 223 195 189 186 188 199 201 204 205 199 196 192 199 214 231 240 249 254 261 266 264 259 260 263 253 230 213 240 258 262 261 258 256 252 251 231 232 245 255 259
342 318 250 234 212 186 184 192 199 204 203 200 196 191 188 195 208 222 229 235 247 256 261 266 266 260 256 254 234 214 229 250 262 268 272 273 261 238 226 227 243 254 266
3 359 357 323 278 169 176 194 206 205 198 198 198 195 194 212 219 215 225 232 242 254 259 259 258 255 247 243 232 215 218 234 252 264 272 279 243 228 228 229 242 249 252
14 11 9 5 4 18 156 213 216 210 213 209 209 209 208 214 221 226 235 239 240 250 257 259 262 260 250 235 223 215 218 225 235 256 268 278 259 251 247 242 241 241 242
18 15 10 6 6 3 2 338 271 224 224 228 225 227 230 231 230 232 240 243 246 249 253 257 267 275 271 256 216 208 219 227 237 253 263 261 254 246 249 255 245 233 235
17 14 10 2 359 1 355 354 352 332 275 259 255 256 253 248 244 239 239 242 244 247 251 258 262 269 275 254 146 252 269 273 285 291 274 270 265 257 248 243 239 233 226
11 8 3 358 353 351 349 348 340 317 293 279 269 267 264 259 252 249 249 236 235 240 232 231 239 252 252 252 243 237 239 244 239 256 263 264 264 263 261 256 248 239 234
Height
1521 1524 1527 1529 1532 1535 1537 1540 1542 1543 1545 1546 1547 1548 1548 1548 1547 1546 1543 1542 1541 1539 1539 1538 1537 1537 1536 1536 1536 1536 1536 1536 1537 1537 1536 1535 1534 1533 1532 1533 1534 1535 1535
1521 1524 1527 1530 1532 1535 1537 1539 1541 1542 1544 1545 1546 1546 1546 1546 1546 1545 1543 1541 1539 1538 1538 1536 1535 1535 1534 1534 1534 1534 1534 1534 1535 1535 1534 1532 1532 1529 1529 1529 1530 1531 1532
1520 1524 1527 1530 1532 1534 1536 1539 1540 1541 1543 1544 1544 1545 1545 1545 1545 1543 1542 1540 1538 1537 1536 1535 1534 1533 1533 1533 1533 1533 1532 1532 1532 1532 1533 1532 1529 1528 1527 1527 1527 1527 1528
1519 1523 1526 1529 1531 1533 1535 1537 1538 1540 1541 1542 1542 1543 1543 1543 1543 1541 1540 1538 1537 1536 1535 1534 1532 1531 1531 1531 1531 1530 1530 1530 1530 1530 1530 1531 1530 1529 1527 1526 1526 1525 1525
1517 1521 1524 1527 1530 1532 1533 1535 1536 1537 1538 1539 1540 1540 1540 1541 1540 1539 1538 1537 1536 1535 1534 1532 1531 1530 1530 1530 1529 1528 1527 1527 1528 1527 1527 1527 1528 1528 1527 1525 1525 1524 1523
1515 1519 1522 1525 1528 1530 1532 1533 1534 1535 1536 1537 1537 1538 1538 1537 1536 1536 1535 1535 1535 1535 1533 1532 1530 1529 1529 1528 1527 1526 1525 1525 1525 1524 1525 1525 1525 1525 1525 1524 1523 1522 1521
1513 1517 1520 1523 1525 1528 1530 1531 1532 1533 1534 1535 1535 1535 1535 1535 1534 1534 1534 1534 1534 1534 1532 1530 1529 1527 1527 1526 1525 1524 1524 1523 1523 1522 1522 1522 1522 1522 1522 1522 1521 1520 1519
1510 1513 1516 1520 1522 1525 1527 1529 1530 1530 1532 1533 1533 1533 1533 1532 1533 1533 1532 1532 1531 1531 1530 1528 1526 1525 1524 1524 1523 1522 1521 1521 1520 1520 1519 1519 1518 1519 1519 1519 1519 1517 1516
1506 1509 1512 1516 1519 1521 1524 1526 1527 1528 1530 1530 1530 1530 1530 1530 1530 1529 1529 1529 1529 1528 1527 1526 1524 1523 1522 1521 1520 1519 1519 1518 1517 1517 1517 1516 1516 1516 1516 1516 1516 1516 1514
1502 1506 1509 1512 1515 1518 1520 1523 1525 1526 1527 1528 1528 1529 1527 1527 1526 1526 1526 1525 1525 1524 1523 1522 1521 1520 1519 1518 1517 1516 1515 1515 1514 1513 1513 1512 1512 1512 1512 1512 1512 1512 1511
1498 1501 1505 1509 1512 1515 1517 1520 1522 1523 1524 1525 1525 1525 1525 1525 1524 1523 1523 1522 1521 1520 1519 1518 1517 1516 1516 1515 1514 1512 1512 1511 1510 1509 1509 1508 1508 1507 1507 1507 1507 1507 1507
1494 1498 1502 1505 1509 1513 1515 1517 1519 1520 1521 1522 1522 1522 1521 1521 1520 1520 1520 1519 1518 1517 1516 1515 1514 1513 1512 1511 1510 1508 1508 1507 1505 1505 1504 1503 1503 1503 1502 1502 1502 1502 1502
1492 1496 1499 1502 1507 1510 1513 1514 1516 1517 1518 1519 1519 1518 1518 1518 1517 1516 1516 1515 1514 1513 1512 1511 1509 1508 1507 1506 1505 1504 1502 1501 1501 1500 1499 1498 1498 1498 1497 1497 1497 1497 1498
1490 1494 1497 1500 1504 1507 1510 1512 1513 1515 1515 1516 1515 1515 1515 1514 1514 1513 1512 1511 1510 1509 1507 1506 1505 1504 1502 1501 1500 1498 1497 1496 1495 1495 1494 1493 1493 1492 1492 1492 1492 1492 1492
1488 1492 1495 1498 1501 1504 1506 1508 1510 1511 1511 1512 1512 1511 1511 1511 1510 1509 1508 1507 1506 1505 1503 1502 1500 1499 1498 1496 1495 1494 1493 1492 1490 1489 1488 1488 1487 1486 1486 1487 1487 1487 1487
1486 1489 1492 1495 1497 1500 1502 1504 1505 1506 1507 1507 1507 1507 1507 1507 1506 1505 1504 1503 1501 1500 1499 1497 1495 1494 1493 1492 1490 1488 1487 1485 1484 1483 1482 1481 1481 1480 1480 1480 1481 1481 1481
1482 1484 1487 1490 1493 1495 1497 1499 1500 1501 1501 1501 1502 1502 1502 1502 1502 1501 1501 1499 1497 1496 1494 1492 1490 1488 1487 1485 1484 1482 1481 1479 1478 1477 1476 1475 1475 1476 1475 1474 1474 1474 1475
1479 1481 1483 1485 1488 1490 1492 1494 1495 1495 1496 1496 1496 1497 1497 1497 1497 1497 1496 1494 1492 1490 1488 1486 1485 1483 1481 1480 1478 1476 1475 1473 1472 1471 1470 1469 1468 1469 1469 1469 1468 1468 1468
1477 1478 1480 1481 1483 1484 1486 1487 1489 1489 1490 1490 1491 1492 1493 1493 1493 1492 1491 1489 1487 1485 1483 1481 1479 1477 1475 1474 1472 1471 1469 1467 1466 1465 1464 1464 1463 1463 1463 1462 1462 1462 1462
1475 1475 1476 1477 1478 1479 1480 1481 1482 1484 1484 1485 1486 1487 1487 1487 1487 1486 1485 1484 1482 1480 1478 1475 1474 1472 1470 1468 1467 1465 1464 1462 1461 1460 1459 1459 1458 1457 1457 1456 1456 1455 1455
1473 1473 1473 1473 1474 1474 1475 1476 1477 1478 1480 1481 1482 1482 1481 1481 1480 1480 1479 1478 1476 1474 1472 1470 1468 1465 1464 1462 1461 1460 1458 1457 1456 1455 1454 1453 1452 1451 1451 1450 1450 1449 1449
1471 1471 1470 1471 1470 1471 1471 1472 1473 1474 1476 1476 1476 1475 1475 1474 1473 1473 1472 1471 1470 1468 1466 1464 1462 1460 1458 1457 1455 1454 1453 1451 1450 1449 1448 1447 1446 1445 1444 1443 1443 1442 1442
1471 1470 1469 1469 1469 1468 1468 1469 1469 1471 1471 1471 1470 1470 1469 1469 1468 1467 1466 1464 1463 1462 1460 1459 1457 1455 1453 1451 1450 1448 1447 1445 1444 1443 1442 1441 1440 1438 1437 1436 1435 1435 1433
1474 1472 1471 1469 1468 1467 1467 1467 1467 1466 1466 1466 1465 1465 1464 1463 1461 1460 1459 1458 1457 1456 1455 1453 1451 1449 1447 1446 1444 1442 1440 1439 1437 1436 1435 1434 1432 1431 1429 1428 1427 1426 1425
1477 1475 1473 1471 1469 1467 1466 1465 1464 1463 1463 1462 1461 1459 1458 1456 1455 1453 1452 1450 1449 1449 1448 1446 1444 1442 1440 1439 1438 1436 1435 1433 1432 1429 1428 1426 1425 1423 1422 1420 1419 1419 1418
1478 1476 1474 1472 1470 1467 1465 1464 1462 1461 1459 1458 1456 1454 1452 1450 1447 1445 1444 1442 1441 1440 1439 1438 1437 1435 1433 1432 1430 1429 1427 1426 1424 1422 1420 1418 1417 1416 1415 1414 1413 1412 1411